Bella Coola, British Columbia

5:44 AM PDT on March 24, 2017 (GMT -0700)
Bella Coola

Weather History for CYBD - September, 2013

Change the Weather History Date:

Tuesday, September 17, 2013

  Actual Average Record
Temperature  
Mean Temperature 56 °F -  
Max Temperature 60 °F 55 °F 75 °F (2010)
Min Temperature 51 °F 42 °F 37 °F (2003)
Degree Days  
Heating Degree Days 10    
Growing Degree Days 6 (Base 50)    
Moisture  
Dew Point 52 °F    
Average Humidity 82    
Maximum Humidity 100    
Minimum Humidity 63    
Precipitation  
Precipitation 0.00 in - - ()
Sea Level Pressure  
Sea Level Pressure 29.88 in    
Wind  
Wind Speed 4 mph ()    
Max Wind Speed 15 mph    
Max Gust Speed 26 mph    
Visibility 14.9 miles    
Events Rain    
Averages and records for this station are not official NWS values.
T = Trace of Precipitation, MM = Missing Value Source: Averaged Metar Reports

Daily Weather History Graph

Daily Weather History Graph

Search for Another Location

Airport or City:

Trip Planner

Search our weather history database for the weather conditions in past years. The results will help you decide how hot, cold, wet, or windy it might be!

Date:

Astronomy

Sep. 17, 2013 Rise Set
Actual Time 7:04 AM PDT 7:35 PM PDT
Civil Twilight 6:30 AM PDT 8:09 PM PDT
Nautical Twilight 5:49 AM PDT 8:50 PM PDT
Astronomical Twilight 5:06 AM PDT 9:33 PM PDT
Moon 6:31 PM PDT (9/17) 4:56 AM PDT (9/17)
Length of Visible Light 13h 39m
Length of Day
12h 30m
Waxing Gibbous, 96% of the Moon is Illuminated
Sep 17
Waxing Gibbous
Sep 19
Full
Sep 26
Last Quarter
Oct 4
New
Oct 11
First Quarter

Hourly Weather History & Observations

Time (PDT) Temp. Dew Point Humidity Pressure Visibility Wind Dir Wind Speed Gust Speed Precip Events Conditions
6:00 AM 53.6 °F 51.8 °F 94% 29.89 in 15.0 mi Calm Calm - N/A Rain Light Rain
7:00 AM 53.6 °F 51.8 °F 94% 29.89 in 15.0 mi Calm Calm - N/A   Mostly Cloudy
7:31 AM 51.8 °F 51.8 °F 100% 29.90 in 15.0 mi Calm Calm - N/A Rain Light Rain Showers
8:00 AM 53.6 °F 51.8 °F 94% 29.90 in 15.0 mi Calm Calm - N/A   Mostly Cloudy
8:25 AM 53.6 °F 51.8 °F 94% 29.90 in 12.0 mi ENE 2.3 mph - N/A   Mostly Cloudy
9:00 AM 53.6 °F 51.8 °F 94% 29.91 in 15.0 mi East 3.5 mph - N/A   Mostly Cloudy
10:00 AM 55.4 °F 51.8 °F 88% 29.90 in 15.0 mi Calm Calm - N/A   Mostly Cloudy
11:00 AM 57.2 °F 51.8 °F 82% 29.89 in 15.0 mi Calm Calm - N/A   Mostly Cloudy
11:52 AM 59.0 °F 51.8 °F 77% 29.88 in 15.0 mi West 6.9 mph - N/A Rain Light Rain Showers
12:00 PM 59.0 °F 51.8 °F 77% 29.88 in 15.0 mi West 6.9 mph - N/A Rain Light Rain Showers
12:20 PM 59.0 °F 51.8 °F 77% 29.88 in 15.0 mi West 5.8 mph - N/A   Mostly Cloudy
12:40 PM 59.0 °F 51.8 °F 77% 29.88 in 15.0 mi WNW 9.2 mph - N/A Rain Light Rain Showers
1:00 PM 57.2 °F 53.6 °F 88% 29.88 in 15.0 mi West 3.5 mph - N/A Rain Light Rain Showers
1:34 PM 59.0 °F 53.6 °F 82% 29.87 in 15.0 mi WNW 6.9 mph - N/A   Mostly Cloudy
2:00 PM 60.8 °F 51.8 °F 72% 29.86 in 15.0 mi West 3.5 mph - N/A   Mostly Cloudy
2:33 PM 60.8 °F 50.0 °F 68% 29.86 in 15.0 mi WSW 15.0 mph - N/A   Partly Cloudy
3:00 PM 60.8 °F 48.2 °F 63% 29.85 in 15.0 mi WSW 13.8 mph 26.5 mph N/A   Scattered Clouds
4:00 PM 57.2 °F 51.8 °F 82% 29.86 in 15.0 mi West 8.1 mph 18.4 mph N/A   Mostly Cloudy
4:01 PM 57.2 °F 51.8 °F 82% 29.86 in 15.0 mi West 9.2 mph 18.4 mph N/A Rain Light Rain Showers
4:20 PM 60.8 °F 51.8 °F 72% 29.86 in 15.0 mi NW 10.4 mph - N/A   Mostly Cloudy
5:00 PM 60.8 °F 51.8 °F 72% 29.86 in 15.0 mi WNW 5.8 mph - N/A   Mostly Cloudy
6:00 PM 60.8 °F 50.0 °F 68% 29.86 in 15.0 mi WSW 13.8 mph 19.6 mph N/A   Mostly Cloudy